Starlink 35830

operational
NORAD ID: 66285 Int'l Des: 2025-247 Owner: SPXS Country: US Constellation: starlink
NOTLE

About Starlink 35830

Description loading...

Live Position

Loading 3D Globe...

Upcoming Passes

Altitude History

Altitude vs Time

uPlot chart will show altitude changes over time

Two-Line Element Set

1 66285C 25247V 25305.06645833 .00474480 00000+0 71047-3 0 3056
2 66285 53.1563 79.7600 0008872 258.6110 320.5576 16.03453281 11
Epoch: Nov 1, 2025 • Age: 22 hours

Current Status

Altitude 273.6 km
Velocity 7.75 km/s
Sub-Earth Point 48.17°N, 121.7°E
Launch Date Oct 31, 2025
Age 1 days
Type internet

Technical Details

Classification Payload
Mass 575.00 kg
Dry Mass 530.00 kg
Total Mass 575.00 kg
Length 0.30 m
Diameter 4.10 m
Span 29.00 m
Shape Box + pan
Manufacturer SPXS
Bus Type Starlink V2MO
Phase Status In Orbit
Owner/State SPXS/US

Large Constellations

Loading constellations...